Regional Weather Roundup
Issued by NWS

Home | Current Version | Previous Version | Graphics & Text | Print | Product List | Glossary On
Versions: 1 2 3 4 5 6 7 8 9 10 11 12 13 14 15 16 17 18 19 20 21 22 23 24 25 26 27 28 29 30 31 32 33 34 35 36 37 38
000
ASUS45 KBOU 230707
RWRCO

WEATHER ROUNDUP FOR COLORADO
NATIONAL WEATHER SERVICE DENVER/BOULDER CO
100 AM MDT THU OCT 23 2014

NOTE: "FAIR" INDICATES FEW OR NO CLOUDS BELOW 12000 FEET WITH NO
SIGNIFICANT WEATHER AND/OR OBSTRUCTIONS TO VISIBILITY.

COZ001>005-013-030-031-230800-
...NORTHWEST COLORADO...

CITY           SKY/WX    TMP DP  RH WIND       PRES   REMARKS
CRAIG          CLEAR     32  29  88 CALM      30.25S
HAYDEN         CLEAR     37  30  75 SE10      30.25S
MEEKER         CLEAR     40  35  83 E5        30.26R
MOUNT WERNER   NOT AVBL
STEAMBOAT SPGS MOCLDY    35  31  85 CALM      30.28R
WALDEN         PTCLDY    30  27  86 SE8       30.29R WCI  23
$$

COZ006>008-011-230800-
...WEST CENTRAL VALLEYS...

CITY           SKY/WX    TMP DP  RH WIND       PRES   REMARKS
GRAND JUNCTION CLEAR     47  38  71 E12       30.18S
MONTROSE       CLEAR     47  36  65 SE10      30.25F
EAGLE          CLEAR     37  37 100 CALM      30.30R
RIFLE          CLEAR     41  37  86 CALM      30.24S
DELTA          CLEAR     47  34  60 E6        30.23R
NUCLA          NOT AVBL
$$

COZ017>023-064>068-230800-
...SOUTHWEST COLORADO...

CITY           SKY/WX    TMP DP  RH WIND       PRES   REMARKS
DURANGO        CLEAR     41  36  82 CALM      30.27S
CORTEZ         CLEAR     39  33  79 E3        30.25S
PAGOSA SPRINGS CLEAR     38  37  97 CALM      30.32S
TELLURIDE      CLEAR     39  33  78 SE5       30.40S
WOLF CREEK PAS CLEAR     32  32 100 SW9         N/A  WCI  24
$$

COZ009-010-012-014-032>034-037-058>063-230800-
...CENTRAL COLORADO...

CITY           SKY/WX    TMP DP  RH WIND       PRES   REMARKS
ASPEN          CLEAR     35  32  88 SW8       30.31S WCI  29
BUENA VISTA    CLEAR     36  30  80 SE3       30.30F
COPPER MTN     CLEAR     34  23  64 SW7       30.44F WCI  28
BERTHOUD PASS  FAIR      27  23  86 NW30      30.42F WCI  10
COTTONWOOD PAS CLEAR     43  27  52 NW3       30.37S
GUNNISON       CLEAR     36  28  75 CALM      30.34S
KREMMLING      CLEAR     32  30  93 CALM        N/A
LEADVILLE      CLEAR     32  24  72 NE5       30.36F WCI  27
MONARCH PASS   CLEAR     30  30 100 W21       30.55F WCI  17
SALIDA         CLEAR     42  35  74 CALM      30.37S
SUNLIGHT       CLEAR     34  32  93 CALM      30.43R
WILKERSON PASS NOT AVBL
$$

COZ069>075-230800-
...SAN LUIS VALLEY/SANGRE DE CRISTO MOUNTAINS...

CITY           SKY/WX    TMP DP  RH WIND       PRES   REMARKS
ALAMOSA        PTCLDY    34  29  82 MISG      30.29R
LA VETA PASS   CLEAR     37  30  75 S7        30.37F
SAGUACHE       CLEAR     41  32  70 NW14      30.31S
$$

COZ035-036-038>040-230800-
...NORTHERN COLORADO FRONT RANGE...

CITY           SKY/WX    TMP DP  RH WIND       PRES   REMARKS
DENVER INTL AP PTCLDY    47  40  76 SW5       30.14F
DMNS CITY PARK   N/A     48  40  73 N1        30.14R
AURORA         PTCLDY    47  40  75 S8        30.15F
FRONT RANGE AP CLEAR     45  41  87 S5        30.15S
ERIE MUNI ARPT PTCLDY    43  38  82 CALM      30.15S
BOULDER MUN AP PTCLDY    50  37  62 SW3       30.14F
CENTENNIAL     PTCLDY    46  38  73 S9        30.16F
BROOMFIELD     PTCLDY    50  37  62 N13       30.15F
FORT COLLINS   CLEAR     46  36  66 N6        30.15F
LONGMONT       CLEAR     46  37  72 SW7       30.16R
$$

COZ041-046-047-076>085-087-088-230800-
...PIKES PEAK/PALMER DIVIDE AND SOUTHERN FOOTHILLS...

CITY           SKY/WX    TMP DP  RH WIND       PRES   REMARKS
COLO. SPRINGS  PTCLDY    44  38  79 N3        30.21F
A. F. ACADEMY  CLEAR     37  35  90 N8        30.21F
ELLICOTT       NOT AVBL
FALCON         CLEAR     43  38  82 W3        30.23F
FORT CARSON    CLEAR     47  40  74 NW5       30.18F
LIMON          PTCLDY    42  40  92 CALM      30.16F
MONUMENT HILL  CLEAR     41  36  81 S9        30.21S
TRINIDAD       CLEAR     47  40  76 W10       30.17R
$$

COZ042>045-048>051-090-091-230800-
...NORTHEAST COLORADO...

CITY           SKY/WX    TMP DP  RH WIND       PRES   REMARKS
GREELEY ARPT   CLEAR     39  30  70 NW6       30.13F
AKRON          CLEAR     42  33  70 SW5       30.12F
BURLINGTON     CLEAR     44  39  82 W5        30.12S
WRAY           CLEAR     44  33  65 SW6       30.11S
STERLING       CLEAR     41  37  87 S5        30.11S
HOLYOKE        CLEAR     43  34  70 W6        30.11S
FORT MORGAN    CLEAR     45  33  64 E7        30.13S
$$

COZ086-089-092>099-230800-
...SOUTHEAST COLORADO...

CITY           SKY/WX    TMP DP  RH WIND       PRES   REMARKS
PUEBLO         CLEAR     52  43  71 N9        30.14R
LA JUNTA       PTCLDY    54  46  74 NE6       30.11R
LAMAR          PTCLDY    48  43  82 CALM      30.08S
SPRINGFIELD      N/A     48  45  89 CALM      30.11S
$$



USA.gov is the U.S. government's official web portal to all federal, state and local government web resources and services.